Tracking 20945 objects as of 8-Jul-2020
HD Live streaming from Space Station
objects crossing your sky now

COSMOS 249 DEB

Track COSMOS 249 DEB now!
10-day predictions


NORAD ID: 14410
Int'l Code: 1968-091CL
Perigee: 637.9 km
Apogee: 1,367.9 km
Inclination: 62.2 °
Period: 105.0 minutes
Semi major axis: 7373 km
RCS: 0.0157 m2 (small)
Launch date: October 20, 1968
Source: Commonwealth of Independent States (former USSR) (CIS)
Launch site: TYURATAM MISSILE AND SPACE COMPLEX (TTMTR)

Note: This is SATELLITE DEBRIS
aabbcc
Your satellite tracking list
Your tracking list is empty




NASA's NSSDC Master Catalog

Two Line Element Set (TLE):
1 14410U 68091CL  20190.86634980 -.00000147  00000-0 -12829-4 0  9990
2 14410  62.2185 345.6757 0495004  79.3039  65.4169 13.71064339803690
Source of the keplerian elements: AFSPC